Location: Il Ritiro
(43.4167°N, 13.1333°E)
Time: 17:05:39
(UTC+00:00)

BREEZE-M DEB (TANK) - Pass Details

Date: 05 July 2020
Orbit: 275 x 20501 km, 49.2° (Epoch: 11 August)

Event Time Altitude Azimuth Distance (km) Brightness Sun altitude
Rises 19:24:51 0° 216° (SW) 7,309 8.5 -5.8°
Reaches altitude 10° 19:32:14 10° 208° (SSW) 4,115 7.1 -6.9°
Maximum altitude 19:38:49 26° 155° (SSE) 1,426 4.4 -7.8°
Drops below altitude 10° 19:41:31 10° 95° (E) 1,584 4.7 -8.1°
Enters shadow 19:42:41 - 81° (E) 2,012 5.3 -8.3°
